COSMOS 2251 DEB, 47059

Orbit data source: Space-Track

COSMOS 2251 DEB, 47059 is space debris in LEO originally from a launch on Wed, 16 Jun 1993 UTC launched from the Plesetsk Missile And Space Complex (PKMTR). The debris from Iridium 33, an American commercial communications satellite, has been tracked extensively since its accidental collision with the defunct Russian satellite Cosmos 2251 in 2009. This event, occurring at high speed in low Earth orbit (LEO), generated thousands of pieces of space debris, significantly increasing the risk of further collisions. The Iridium 33 debris cloud has impacted space traffic management and orbital debris mitigation strategies, making it a subject of ongoing study in space situational awareness.

Loading next visibility...
Identifier
47059, 1993-036BXP
Orbit
LEO
Country
Flag of CISCIS
Related business
Manufacturer
Unknown
Mission
Spacecraft
Bus & Motor
Unknown
Mass
Unknown
Launch date (UTC)
1993-06-16 (32 years ago)
Launch vehicle
Unknown
Launch site
Plesetsk Missile And Space Complex (PKMTR)
Object type
Payload
Rocket body
Debris
Shape & HBR
Unknown shape, 0.1 m
Radar Cross Section
Small (<0.1 m²)

Expand to show TLE details & history
Last TLE update: 9 hours ago

TLE from 9 hours ago
0 COSMOS 2251 DEB
1 47059U 93036BXP 25302.33050968  .00052429  00000-0  35102-2 0  9997
2 47059  73.9831 327.3321 0010769 132.8891 241.3426 15.06602933 76352
Epoch: 2025-10-29T07:55Z
TLE epoch observation values (Epoch: 2025-10-29T07:55:56.036Z)
Latitude
13.5362°
Longitude
174.38456°
Altitude
552.116 km
Speed
7.585 km/s
True Right ascension
22h 05m 05s
True Declination
13° 27' 21"
Sunlit
Object was in full shadow at epoch
Visualization orbit readout
Latitude
Unknown
Longitude
Unknown
Altitude
Unknown
Speed
Unknown
Apparent Right ascension
Unknown
Apparent Declination
Unknown
Sunlit
N/A
Visualization observer readout
Local Sidereal Time
12:51:41
Azimuth
Unknown
Elevation
Unknown
Doppler factor
Unknown
Orbital elements
Apogee altitude
551.595 km
Perigee altitude
536.686 km
Semi-major axis
6,922.278 km
Eccentricity
0.00108
Inclination
73.9831°
RAAN
327.3321°
Arg. of periapsis
132.8891°
True anomaly
241.23438°
Mean anomaly
241.3426°
Eccentric anomaly
241.28848°
Mean motion
3.76851 °/min
Orbital period
95.53 mins
BSTAR
0.0035102

Documentation

Showing up to 5 results
|